Regional Weather Roundup
Issued by NWS

Home | Current Version | Previous Version | Text Only | Print | Product List | Glossary On
Versions: 1 2 3 4 5 6 7 8 9 10 11 12 13 14 15 16 17 18 19 20 21 22 23 24 25 26 27 28 29 30 31 32 33 34 35 36 37 38 39 40 41 42 43 44 45 46 47 48 49 50
182
ASUS43 KDTX 252101
RWRMI
MICHIGAN HOURLY REGIONAL WEATHER ROUNDUP
NATIONAL WEATHER SERVICE DETROIT/PONTIAC MI
500 PM EDT WED MAY 25 2016

NOTE: "FAIR" INDICATES FEW OR NO CLOUDS BELOW 12,000 FEET WITH NO
SIGNIFICANT WEATHER AND/OR OBSTRUCTION TO VISIBILITY.

MIZ047>049-052>055-059>063-066>070-074>076-081>083-252200-
SOUTHEAST LOWER MICHIGAN

CITY           SKY/WX    TMP DP  RH WIND       PRES   REMARKS
ADRIAN         MOSUNNY   82  57  42 SW13G22   30.03F
ALMA           MOSUNNY   83  54  37 S6        29.97F
ANN ARBOR      CLOUDY    81  59  47 S13G22    30.02F
BAD AXE        CLOUDY    75  57  53 E6        30.02F
CARO           PTSUNNY   84  56  37 SW6       29.98F
DETROIT CITY   SUNNY     84  58  40 S13G24    30.02F
DETROIT        PTSUNNY   84  60  44 S18       30.03F
FLINT          MOSUNNY   87  59  38 S16       29.99F
GROSSE ILE     MOSUNNY   79  63  57 S12       30.03S
HILLSDALE      MOSUNNY   81  50  34 S9G16     30.03S
HOWELL         MOSUNNY   84  57  39 SW10G16   30.00F

CITY           SKY/WX    TMP DP  RH WIND       PRES   REMARKS
JACKSON        MOSUNNY   83  59  44 S9        30.01F
LAMBERTVILLE   PTSUNNY   83  57  40 S10       30.04F
LANSING        CLOUDY    82  59  45 SW10      29.99F
LAPEER         PTSUNNY   83  53  34 S6        30.00F
MASON          MOSUNNY   83  58  41 S9G18     30.00F
MONROE         CLOUDY    83  61  47 S16       30.02F
MT. CLEMENS    MOSUNNY   83  62  49 S12       30.01F
PONTIAC        PTSUNNY   85  58  39 SW12      30.01F
PORT HOPE        N/A     56  51  84 E10       30.04F
PORT HURON     SUNNY     84  59  42 S10G20    30.02S
TRI CITIES     CLOUDY    84  60  44 NE9       29.97F
MIDLAND        FAIR      81  61  51 E8        29.97F
TROY           MOSUNNY   85  56  37 S9        30.03F
SAGINAW HB     MOSUNNY   86  50  28 S12G17    29.97F
$$
MIZ043>046-050>051-056>058-064>065-071>073-077>080-252200-
SOUTHWEST LOWER MICHIGAN

CITY           SKY/WX    TMP DP  RH WIND       PRES   REMARKS
BATTLE CREEK   MOSUNNY   82  59  45 S13       29.99F
BENTON HARBOR  CLOUDY    85  60  42 S12G20    29.94F
BIG RAPIDS     PTSUNNY   83  58  41 S7        29.95F
COLDWATER      MOSUNNY   82  58  43 S13G21    30.00F
FREMONT        FAIR      84  59  42 SW8       29.95F
HOLLAND        PTSUNNY   83  63  50 NW6       29.96F
GRAND RAPIDS   CLOUDY    87  57  35 S10       29.96F
IONIA          FAIR      85  54  34 S12       29.96F
KALAMAZOO      MOSUNNY   84  59  42 S10       29.97F
LUDINGTON      CLOUDY    70  61  72 SW8       29.96F
MARSHALL       PTSUNNY   84  59  42 S9        29.99F
MOUNT PLEASANT CLOUDY    86  56  35 S8        29.95F
MUSKEGON       PTSUNNY   80  61  52 W7        29.95F
SOUTH HAVEN    CLOUDY    85  58  40 S8        29.95F
$$
MIZ016>042-252200-
NORTHERN LOWER MICHIGAN

CITY           SKY/WX    TMP DP  RH WIND       PRES   REMARKS
ALPENA         MOSUNNY   70  55  59 E9        30.05S
BEAVER ISLAND  MOSUNNY   66  56  71 NE13G18   30.03S
BELLAIRE       CLOUDY    82  62  51 N6        29.97S
CADILLAC       LGT RAIN  66  63  89 E5        30.02R
CHARLEVOIX     CLOUDY    69  58  69 N5        30.03F
FRANKFORT      MOSUNNY   80  62  53 N7        29.95F
GAYLORD        SUNNY     78  61  55 NE12G18   30.01F
GRAYLING       CLOUDY    84  49  29 CALM      29.98F
HARBOR SPRINGS MOSUNNY   73  60  64 E12       30.01F
HOUGHTON LAKE  CLOUDY    80  59  48 E8        29.98F THUNDER
MANISTEE       SUNNY     77  57  50 NW6       29.98F
OSCODA         MOSUNNY   65  55  70 E7        30.04F
PELLSTON       SUNNY     71  56  58 NE8       30.03F
ROGERS CITY    MOSUNNY   61  54  75 NE6       30.06F
TRAVERSE CITY  PTSUNNY   70  58  65 N6        29.98F
$$
MIZ007>008-015-252200-
EASTERN UPPER MICHIGAN

CITY           SKY/WX    TMP DP  RH WIND       PRES   REMARKS
KINROSS          N/A     73  54  49 E13       30.04F
MACKINAC ISLAN CLOUDY    67  55  64 E10G20    30.04F
NEWBERRY       SUNNY     71  58  64 E6        30.03S
S. S. MARIE    CLOUDY    73  55  53 SE8       30.04S
MUNISING         N/A     48  46  93 N7        30.04F
$$
MIZ004>006-011>014-085-252200-
CENTRAL UPPER MICHIGAN

CITY           SKY/WX    TMP DP  RH WIND       PRES   REMARKS
MANISTIQUE     SUNNY     65  58  78 SE9       30.02F
ESCANABA       SUNNY     66  57  72 E10       29.99F
MENOMINEE      MOSUNNY   60  55  83 E14       29.99F
SAWYER-GWINN   SUNNY     61  52  72 E6        30.03F
$$
MIZ001>003-009>011-084-252200-
WESTERN UPPER MICHIGAN

CITY           SKY/WX    TMP DP  RH WIND       PRES   REMARKS
IRON MOUNTAIN  SUNNY     72  57  59 E10       29.95F
HOUGHTON       CLOUDY    50  44  80 E15       30.01F
COPPER HARBOR    N/A     57  47  69 S8        30.04F
IRONWOOD       CLOUDY    75  55  50 E10       29.87F
$$

ABBREVIATIONS USED IN REMARKS
   TC - TEMPERATURE IN CELSIUS
  WCI - WIND CHILL INDEX
   HX - HEAT INDEX
  VSB - VISIBILITY





USA.gov is the U.S. government's official web portal to all federal, state and local government web resources and services.